SCP
0 0 0 0 0 0 0 0 -0 -0 0 0 0 0 0 0 0 0 0 0 0 0 0 0 0 0 0 0 0 0 0 0 0 0 0 0 0 0 0 0 0 0 0 0 0 0 0 0 0
0 0 0 0 0 0 0 0 -0 -0 0 0 0 0 0 0 0 0 0 0 0 0 0 0 0 0 0 0 0 0 0 0 0 0 0 0 0 0 0 0 0 0 0 0 0 0 0 0 0
0 0 0 0 0 0 0 0 -0 -0 0 0 0 0 0 0 0 0 0 0 0 0 0 0 0 0 0 0 0 0 0 0 0 0 0 0 0 0 0 0 0 0 0 0 0 0 0 0 0
0 0 0 0 0 0 0 0 0 0 0 0 0 0 0 0 0 0 0 0 0 0 0 0 0 0 0 0 0 0 0 0 0 0 0 0 0 0 0 0 0 0 0 0 0 0 0 0 0
0 -0 0 0 0 0 0 0 0 0 0 0 0 0 0 0 0 0 0 0 0 0 0 0 0 0 0 0 0 0 0 0 0 0 0 0 0 0 0 0 0 0 0 0 0 0 0 0 0
0 -0 0 0 0 0 0 0 0 0 0 0 0 0 0 0 0 0 0 0 0 0 0 0 0 0 0 0 0 0 0 0 0 0 0 0 0 0 0 0 0 0 0 0 0 0 0 0 0
0 -0 0 0 0 0 0 0 0 0 0 0 0 0 0 0 0 0 0 0 0 0 0 0 0 0 0 0 0 0 0 0 0 0 0 0 0 0 0 0 0 0 0 0 0 0 0 0 0
0 0 0 0 0 0 0 0 0 0 0 0 0 0 0 0 0 0 0 0 0 0 0 0 0 0 0 0 0 0 0 0 0 0 0 0 0 0 0 0 0 0 0 0 0 0 0 0 0
0 0 0 0 0 0 0 0 0 0 0 0 0 0 0 0 0 0 0 0 0 0 0 0 0 0 0 0 0 0 0 0 0 0 0 0 0 0 0 0 0 0 0 0 0 0 0 0 0
0 0 0 0 0 0 0 0 0 0 0 0 0 0 0 0 0 0 0 0 0 0 0 0 0 0 0 0 0 0 0 0 0 0 0 0 0 0 0 0 0 0 0 0 0 0 0 0 0
0 0 0 0 0 0 0 0 0 0 0 0 0 0 0 0 0 0 0 0 0 0 0 0 0 0 0 0 0 0 0 0 0 0 0 0 0 0 0 0 0 0 0 0 0 0 0 0 0
0 0 0 0 0 0 0 0 0 0 0 0 0 0 0 0 0 0 0 0 0 0 0 0 0 0 0 0 0 0 0 0 0 0 0 0 0 0 0 0 0 0 0 0 0 0 0 0 0
0 0 0 0 0 0 0 0 0 0 0 0 0 0 0 0 0 0 0 0 0 0 0 0 0 0 0 0 0 0 0 0 0 0 0 0 0 0 0 0 0 0 0 0 0 0 0 0 0
0 0 0 0 0 0 0 0 0 0 0 0 0 0 0 0 0 0 0 0 0 0 0 0 0 0 0 0 0 0 0 0 0 0 0 0 0 0 0 0 0 0 0 0 0 0 0 0 0
0 0 0 0 0 0 0 0 0 0 0 0 0 0 0 0 0 0 0 0 0 0 0 0 0 0 0 0 0 0 0 0 0 0 0 0 0 0 0 0 0 0 0 0 0 0 0 0 0
0 0 0 0 0 0 0 0 0 0 0 0 0 0 0 0 0 0 0 0 0 0 0 0 0 0 0 0 0 0 0 0 0 0 0 0 0 0 0 0 0 0 0 0 0 0 0 0 0
0 0 0 0 0 0 0 0 0 0 0 0 0 0 0 0 0 0 0 0 0 0 0 0 0 0 0 0 0 0 0 0 0 0 0 0 0 0 0 0 0 0 0 0 0 0 0 0 0
0 0 0 0 0 0 0 0 0 0 0 0 0 0 0 0 0 0 0 0 0 0 0 0 0 0 0 0 0 0 0 0 0 0 0 0 0 0 0 0 0 0 0 0 0 0 0 0 0
0 0 0 0 0 0 0 0 0 0 0 0 0 0 0 0 0 0 0 0 0 0 0 0 0 0 0 0 0 0 0 0 0 0 0 0 0 0 0 0 0 0 0 0 0 0 0 0 0
0 0 0 0 0 0 0 0 0 0 0 0 0 0 0 0 0 0 0 0 0 0 0 0 0 0 0 0 0 0 0 0 0 0 0 0 0 0 0 0 0 0 0 0 0 0 0 0 0
0 0 0 0 0 0 0 0 0 0 0 0 0 0 0 0 0 0 0 0 0 0 0 0 0 0 0 0 0 0 0 0 0 0 0 0 0 0 0 0 0 0 0 0 0 0 0 0 0
0 0 0 0 0 0 0 0 0 0 0 0 0 0 0 0 0 0 0 0 0 0 0 0 0 0 0 0 0 0 0 0 0 0 0 0 0 0 0 0 0 0 0 0 0 0 0 0 0
0 0 0 0 0 0 0 0 0 0 0 0 0 0 0 0 0 0 0 0 0 0 0 0 0 0 0 0 0 0 0 0 0 0 0 0 0 0 0 0 0 0 0 0 0 0 0 0 0
0 0 0 0 0 0 0 0 0 0 0 0 0 0 0 0 0 0 0 0 0 0 0 0 0 0 0 0 0 0 0 0 0 0 0 0 0 0 0 0 0 0 0 0 0 0 0 0 0
0 0 0 0 0 0 0 0 0 0 0 0 0 0 0 0 0 0 0 0 0 0 0 0 0 0 0 0 0 0 0 0 0 0 0 0 0 0 0 0 0 0 0 0 0 0 0 0 0
0 0 0 0 0 0 0 0 0 0 0 0 0 0 0 0 0 0 0 0 0 0 0 0 0 0 0 0 0 0 0 0 0 0 0 0 0 0 0 0 0 0 0 0 0 0 0 0 0
0 0 0 0 0 0 0 0 0 0 0 0 0 0 0 0 0 0 0 0 0 0 0 0 0 0 0 0 0 0 0 0 0 0 0 0 0 0 0 0 0 0 0 0 0 0 0 0 0
0 0 0 0 0 0 0 0 0 0 0 0 0 0 0 0 0 0 0 0 0 0 0 0 0 0 0 0 0 0 0 0 0 0 0 0 0 0 0 0 0 0 0 0 0 0 0 0 0
0 0 0 0 0 0 0 0 0 0 0 0 0 0 0 0 0 0 0 0 0 0 0 0 0 0 0 0 0 0 0 0 0 0 0 0 0 0 0 0 0 0 0 0 0 0 0 0 0
0 0 0 0 0 0 0 0 0 0 0 0 0 0 0 0 0 0 0 0 0 0 0 0 0 0 0 0 0 0 0 0 0 0 0 0 0 0 0 0 0 0 0 0 0 0 0 0 0
Wind_Speed
13 12 8 2 3 4 2 4 5 6 5 7 5 4 7 9 7 7 4 7 13 14 14 13 14 13 13 12 12 12 12 12 12 12 12 12 12 12 12 13 13 13 14 14 14 14 14 14 14
11 9 4 3 4 2 4 4 6 8 7 4 1 1 5 8 9 8 5 8 12 14 13 12 14 14 13 13 12 12 12 12 11 11 11 12 12 11 12 12 12 12 12 13 13 13 13 13 13
10 9 4 4 3 1 5 6 8 8 5 1 1 3 6 6 8 7 7 8 10 12 12 14 16 14 13 13 12 12 11 11 11 11 11 11 11 11 11 11 11 11 11 11 11 11 11 11 11
6 4 4 4 1 5 5 7 7 6 4 1 1 4 6 6 4 8 9 8 10 12 13 14 16 15 14 13 12 12 11 11 11 11 10 10 10 10 10 9 9 9 9 9 10 10 10 10 10
4 4 5 2 2 3 5 6 3 3 4 3 2 3 7 5 9 10 8 8 9 12 14 14 15 15 14 13 12 12 11 11 11 10 10 9 9 9 8 8 8 8 8 8 8 8 8 9 9
4 4 5 3 4 3 4 3 2 2 3 4 0 1 6 7 8 7 7 6 8 12 14 13 15 15 14 13 13 12 11 11 10 9 9 8 8 7 7 7 6 6 6 6 6 7 7 7 7
4 4 5 2 4 3 4 3 1 2 0 3 2 2 7 7 7 7 7 6 8 11 13 11 10 10 13 13 13 12 11 11 10 9 8 7 6 6 6 5 5 4 4 5 5 5 5 5 5
3 4 4 3 1 3 4 3 1 3 2 3 1 2 6 7 7 7 6 5 7 9 11 11 10 9 8 8 11 11 11 10 10 9 8 7 6 5 6 5 4 3 3 3 3 4 4 4 4
3 4 4 2 1 1 5 3 2 1 3 0 1 3 7 8 7 7 5 4 6 8 9 10 10 10 9 9 10 10 9 9 9 7 8 7 4 4 4 5 5 2 1 1 2 3 4 5 5
3 3 4 4 5 4 2 1 1 2 4 4 3 6 8 7 7 7 7 7 8 8 8 8 9 9 9 8 8 6 6 6 6 5 6 4 3 2 4 6 5 4 3 3 4 5 6 6 3
4 4 3 3 5 5 4 3 3 4 6 4 2 8 9 8 7 8 8 8 8 8 7 7 8 9 8 6 6 4 4 4 5 5 5 3 2 2 2 2 3 3 4 2 3 4 3 2 1
5 4 3 2 3 2 5 5 5 6 6 2 1 5 9 8 8 8 8 8 8 8 8 7 8 8 7 6 5 5 4 3 3 3 3 2 2 1 1 1 2 1 1 1 1 2 3 2 3
6 4 3 1 1 4 5 7 7 8 6 3 2 4 7 8 8 7 7 8 9 9 9 8 8 8 7 6 5 5 4 4 4 3 3 3 2 1 1 0 0 0 0 1 1 2 3 3 3
4 4 5 4 4 5 6 8 8 9 6 5 5 6 8 8 8 8 8 8 9 10 10 8 8 8 7 5 5 4 4 4 4 3 3 3 2 2 1 0 0 0 0 1 2 3 2 2 2
5 7 8 7 6 3 2 8 11 11 7 7 7 8 8 8 8 8 8 8 8 9 10 9 9 9 8 7 6 4 4 4 3 3 3 3 3 2 1 1 0 0 0 1 2 3 2 3 3
7 7 6 5 6 5 3 9 7 4 6 8 8 8 8 9 9 8 8 8 7 9 10 10 8 8 8 7 6 4 4 5 4 3 3 4 3 3 1 1 1 0 0 1 1 1 2 3 3
7 6 5 3 7 5 6 9 7 4 6 8 8 8 8 9 9 9 9 9 8 8 9 10 9 8 8 7 6 5 4 4 4 4 3 3 3 3 2 1 1 0 0 0 1 1 1 3 4
3 4 5 5 3 4 7 11 10 9 9 9 8 8 7 8 9 9 9 9 8 8 9 9 9 8 8 6 5 4 4 4 4 4 4 4 3 4 2 1 1 1 0 0 1 2 2 2 3
6 7 8 8 5 3 8 13 13 10 8 8 7 7 7 7 8 9 9 9 8 7 8 9 10 8 7 6 5 5 4 4 3 3 5 5 4 4 3 2 1 1 1 0 1 1 2 2 2
7 9 10 8 3 4 9 14 14 9 7 6 6 6 6 6 6 8 9 9 9 9 8 9 10 9 8 6 5 5 5 4 4 4 4 5 4 4 3 3 2 2 1 0 0 0 1 2 2
9 9 8 7 8 8 8 10 7 3 4 4 5 5 5 5 6 8 9 9 8 9 9 8 10 9 8 7 5 5 3 3 3 4 3 4 5 4 4 3 2 2 2 1 1 1 1 1 2
8 4 4 6 6 5 4 7 7 4 4 4 4 4 4 4 5 8 10 10 9 8 8 8 9 9 8 8 8 8 6 5 5 4 4 4 5 5 4 4 3 3 2 2 2 2 1 1 2
4 0 3 6 6 7 7 7 7 4 4 3 3 3 3 4 4 6 9 9 8 8 7 7 8 9 9 8 9 8 6 5 4 5 6 5 4 5 5 4 4 3 2 3 2 1 2 2 2
1 2 6 5 4 7 7 7 6 2 2 2 2 3 3 3 4 4 6 8 7 7 7 7 8 8 9 9 9 9 8 7 7 6 6 5 3 4 5 4 4 4 3 3 3 3 3 3 3
4 3 3 4 5 7 3 4 7 2 3 2 2 2 3 4 4 5 6 8 8 8 8 8 8 8 9 9 9 9 9 9 8 7 6 5 4 4 5 5 4 3 4 3 3 3 3 4 4
8 7 5 3 3 2 3 7 5 4 5 3 2 2 3 3 4 5 7 8 8 9 9 9 9 9 9 9 9 8 8 6 5 7 6 6 5 5 6 6 5 5 4 4 4 3 4 4 4
7 9 5 4 6 5 6 6 4 4 5 4 4 4 4 4 5 5 6 8 8 9 10 10 10 9 9 9 9 8 8 7 6 7 6 5 5 5 7 6 6 5 5 5 4 4 5 4 5
4 3 3 5 5 6 7 8 5 6 6 4 4 4 4 4 4 5 6 7 8 8 8 9 9 9 8 8 8 7 7 7 7 6 6 6 6 6 6 6 6 5 5 5 4 4 4 5 5
8 6 6 5 5 4 4 4 1 4 5 4 3 4 3 3 4 4 4 5 6 6 7 8 8 8 8 8 7 7 7 6 6 6 6 6 5 6 7 6 6 5 5 5 5 5 5 6 6
10 11 10 6 6 6 4 6 1 3 4 3 2 3 4 4 4 4 4 4 5 6 6 7 7 8 8 7 7 7 6 6 6 6 6 6 6 6 6 6 6 6 6 6 6 6 6 6 7
Wind_Direction
290 263 247 250 251 235 89 79 90 81 65 55 36 13 48 50 47 99 146 118 120 127 133 141 139 136 130 123 120 113 108 103 97 91 87 82 77 72 69 70 67 65 63 61 60 59 57 56 55
290 278 261 239 249 211 120 114 88 78 81 83 77 343 85 83 92 110 129 115 127 130 138 140 139 138 133 128 125 120 114 110 104 97 91 86 81 76 75 73 70 68 65 62 59 58 56 55 54
268 268 256 242 268 24 105 101 95 93 101 118 109 45 49 79 102 119 125 133 131 131 134 135 143 141 137 133 128 125 120 115 110 104 97 91 86 82 78 75 72 69 66 63 60 57 54 53 52
265 250 244 253 11 41 74 98 105 126 129 91 324 110 85 55 75 110 129 145 138 133 129 140 146 146 143 139 135 131 125 120 117 110 103 98 93 89 83 78 73 70 66 61 58 55 53 50 48
239 256 244 245 85 76 63 80 120 165 149 127 328 88 99 89 97 117 143 150 143 135 132 144 149 149 148 145 143 140 134 129 125 119 112 106 101 96 91 83 76 70 64 60 55 52 49 45 41
257 263 258 212 137 122 117 112 205 226 132 123 287 62 111 127 121 136 146 156 143 132 134 143 153 153 153 150 148 146 143 139 135 129 122 116 111 105 99 92 82 72 63 56 52 49 42 36 29
280 273 286 295 125 153 132 127 236 301 93 92 35 348 122 132 132 144 153 160 139 133 136 144 153 156 157 154 153 152 151 147 144 140 135 131 125 119 112 104 91 78 64 51 42 32 21 15 8
308 293 272 285 176 157 122 124 38 347 355 82 36 341 117 136 144 149 150 152 137 136 141 150 157 158 157 156 157 157 156 156 154 149 146 149 150 147 142 130 114 96 67 42 24 7 352 340 325
285 281 281 304 346 89 117 162 150 74 303 215 123 73 117 134 147 145 145 151 144 146 148 156 160 160 161 160 160 158 160 161 159 158 163 166 179 170 163 139 142 140 121 344 330 318 306 297 286
242 274 301 10 11 9 80 213 230 201 243 236 169 120 128 144 157 164 171 174 166 164 160 159 159 159 160 160 156 165 166 161 174 166 173 194 184 152 140 149 170 195 224 257 269 279 288 281 263
251 265 316 2 20 0 331 282 260 253 262 268 201 154 151 163 175 185 188 181 172 168 166 162 157 157 157 153 159 161 159 164 182 169 181 180 145 137 140 160 178 214 224 240 255 266 264 278 296
267 280 308 337 47 325 295 293 281 254 253 262 70 128 157 176 189 193 192 180 167 169 169 166 158 156 159 156 160 159 158 163 161 159 169 150 139 159 141 167 165 195 209 244 272 274 280 301 301
253 271 281 278 234 258 276 276 277 265 260 243 159 162 181 191 194 196 192 181 169 171 171 171 164 159 161 158 159 162 159 156 152 155 167 146 139 140 112 162 126 145 8 312 307 306 322 327 322
310 299 274 251 239 243 259 269 262 254 236 221 198 201 203 204 198 192 189 186 177 171 171 171 171 165 163 161 161 160 152 146 146 148 153 143 132 124 136 193 57 8 330 327 319 311 326 320 324
273 272 263 229 220 215 281 270 245 239 223 222 217 211 209 204 197 196 188 184 179 169 170 172 174 170 167 167 165 156 151 146 144 145 153 146 134 133 147 153 167 235 334 326 319 329 338 324 323
239 246 250 203 189 162 197 267 278 205 199 220 225 220 209 203 197 194 183 178 177 166 169 171 173 173 169 166 163 154 153 149 149 149 151 151 148 149 154 158 209 218 257 314 317 327 337 334 335
225 243 253 219 187 183 214 265 277 253 219 228 229 226 212 198 197 190 179 176 174 169 167 167 169 174 168 161 157 154 151 150 150 148 150 156 160 156 158 173 208 196 68 318 325 346 355 338 328
290 291 297 291 210 218 250 266 271 263 244 235 232 231 220 202 195 185 176 172 171 172 168 167 167 173 164 158 154 150 150 153 149 151 157 160 165 162 167 172 197 148 95 333 345 338 344 325 314
297 293 287 285 286 264 262 271 275 266 251 242 235 230 225 212 187 174 168 163 165 170 172 170 168 174 168 161 162 162 167 164 160 160 165 166 168 167 166 171 177 138 137 248 322 355 346 330 338
265 273 280 287 312 301 276 278 275 257 238 232 237 236 230 213 184 167 162 163 170 176 178 175 171 172 173 168 165 162 160 165 164 163 170 171 174 171 165 171 174 159 149 287 309 29 348 317 357
248 255 272 297 317 275 268 285 267 237 207 209 224 224 224 212 192 169 168 172 173 178 180 179 173 170 172 164 151 143 133 135 153 171 174 179 175 172 166 172 175 167 164 194 213 197 208 288 314
253 260 277 292 299 293 310 295 279 220 190 200 205 200 208 212 196 174 170 174 178 180 173 175 170 169 173 167 164 166 170 174 180 171 170 181 181 175 169 172 176 173 173 190 208 192 193 199 269
241 58 275 272 274 279 259 255 271 219 191 193 170 166 184 190 186 176 171 174 174 168 165 171 170 173 176 176 175 178 179 178 165 164 173 182 183 174 169 172 174 181 186 193 194 194 215 207 222
220 255 260 247 257 259 235 226 273 233 165 142 126 139 156 162 172 172 163 160 162 160 161 169 175 179 180 182 181 183 184 181 177 177 178 178 172 175 177 176 178 185 185 190 193 202 218 228 235
194 212 250 215 212 238 193 218 252 203 110 105 119 126 136 149 165 175 169 169 169 167 170 177 183 186 186 187 189 190 189 189 188 181 177 174 174 182 188 181 184 188 190 191 194 206 223 227 234
197 213 226 248 254 278 205 229 243 147 125 125 140 144 140 150 169 184 183 180 179 178 178 184 192 194 190 191 194 195 191 189 187 178 173 181 185 187 183 183 188 192 190 194 197 212 224 227 231
196 214 242 291 291 278 252 238 213 145 142 167 172 166 168 169 177 187 187 185 185 185 187 189 194 197 196 193 192 195 193 189 185 179 177 182 182 181 179 182 188 193 194 198 201 216 227 228 231
243 228 191 213 241 254 255 246 228 176 183 184 176 172 168 171 180 187 192 193 192 190 189 189 193 198 198 194 193 194 194 190 181 177 182 182 182 175 173 181 188 195 200 205 210 222 230 234 238
193 214 215 220 240 244 270 269 85 149 156 170 177 158 162 181 186 189 195 192 188 186 186 190 193 196 196 196 194 192 191 185 180 181 185 182 179 174 179 185 191 198 206 210 215 224 230 236 244
198 207 206 212 230 224 250 268 193 120 126 150 189 190 197 189 177 179 186 183 186 190 191 191 193 196 195 191 192 192 188 182 184 187 187 181 181 181 184 186 195 205 211 214 219 230 234 238 245